500  
NZUS01 KOTX 290310  
RWROTX  
 
EASTERN WASHINGTON/NORTHERN IDAHO ROUNDUP  
NATIONAL WEATHER SERVICE, SPOKANE WA  
800 PM PDT TUE MAR 28 2017  
 
NOTE: "FAIR" INDICATED FEW OR NO CLOUDS BELOW 12,000 FEET WITH NO  
SIGNIFICANT WEATHER AND/OR S TO VISIBILITY
.  
   
..NORTHEAST WASHINGTON AND NORTHERN IDAHO PANHANDLE
 
 
 
CITY SKY/WX TMP DP RH WIND PRES REMARKS
 
SPOKANE INTL MOCLDY 43 39 86 S6 30.19R  
SPOKANE DOWNTO CLOUDY 45 40 82 S5 30.21S  
COEUR D ALENE LGT RAIN 41 39 93 SE9 30.21S  
DEER PARK CLOUDY 42 39 89 S7 30.19F  
SANDPOINT LGT RAIN 39 39 100 CALM 30.20F  
BONNERS FERRY CLOUDY 39 36 87 SW6 30.18R  
   
..SOUTHEAST WASHINGTON AND SOUTHERN IDAHO PANHANDLE
 
 
 
CITY SKY/WX TMP DP RH WIND PRES REMARKS
 
WALLA WALLA CLOUDY 53 37 54 SE12 30.21F  
PULLMAN/MOSCOW CLOUDY 42 38 85 S3 30.24F  
LEWISTON CLOUDY 47 42 83 SE9 30.25F  
LOWELL N/A 45 42 89 CALM 30.28R  
GRANGEVILLE CLOUDY 41 37 87 W3 30.24S  
   
..COLUMBIA BASIN
 
 
 
CITY SKY/WX TMP DP RH WIND PRES REMARKS
 
EPHRATA CLOUDY 49 37 63 S5 30.14S  
MOSES LAKE CLOUDY 50 40 68 S8 30.15F  
PASCO CLOUDY 55 38 52 SE10 30.22S  
RICHLAND CLOUDY 56 38 52 SE8 30.21R  
HERMISTON CLOUDY 53 42 66 CALM 30.21R  
PENDLETON CLOUDY 52 40 63 S10 30.20S  
   
..EAST SLOPES CASCADES
 
 
 
CITY SKY/WX TMP DP RH WIND PRES REMARKS
 
THE DALLES CLOUDY 55 39 54 W6 30.22R  
YAKIMA MOCLDY 54 36 50 SW7 30.16R  
ELLENSBURG CLOUDY 47 37 68 W9 30.15S  
WENATCHEE CLOUDY 49 38 65 NW8 30.14R  
OMAK CLOUDY 51 34 52 S8 30.12R  
SUNNYSIDE CLOUDY 51 36 56 SW6 30.20S  
   
..SOUTHERN BRITISH COLUMBIA
 
 
 
CITY SKY/WX TMP DP RH WIND PRES REMARKS
 
PENTICTON CLOUDY 48 39 71 S9 30.07S  
CASTLEGAR LGT RAIN 39 37 93 SE3 30.17S  
CRANBROOK CLOUDY 39 32 75 S15G22 30.09R  
OSOYOOS N/A 54 37 54 SE7 N/A  
CRESTON N/A 41 36 81 SE5 N/A  
   
..WESTERN MONTANA
 
 
 
CITY SKY/WX TMP DP RH WIND PRES REMARKS
 
KALISPELL CLOUDY 43 31 62 S7 30.15R  
MISSOULA CLOUDY 44 30 57 N5 30.20S  
   
..NEIGHBORING CITIES
 
 
 
CITY SKY/WX TMP DP RH WIND PRES REMARKS
 
SEATTLE CLOUDY 49 45 86 S10 30.18S  
PORTLAND CLOUDY 56 41 57 SW6 30.23R  
BOISE PTCLDY 49 30 48 N3 30.25S  
GREAT FALLS CLOUDY 42 22 44 SW10 30.06R  
CALGARY PTCLDY 46 19 34 W13 29.85R  
 
CLICK HERE TO GO TO PREVIOUS BULLETINS.

The Nexlab WA Page
The Nexlab ID Page Main Text Page